| time (UTC) | temp C | wind direction | speed KPH | gust KPH | rain 1hr cm | rain 24hr cm | rain mn cm | humidity % | barometer mb |
| 20260508022958 | 13 | 264 | 0.0 | 1.6 | 0.05 | 0.97 | 0.41 | 96 | 988.8 |
| 20260508022457 | 13 | 229 | 1.6 | 1.6 | 0.05 | 0.97 | 0.41 | 96 | 988.8 |
| 20260508021957 | 13 | 242 | 1.6 | 3.2 | 0.05 | 0.94 | 0.38 | 96 | 988.8 |
| 20260508021457 | 13 | 240 | 1.6 | 3.2 | 0.05 | 0.94 | 0.38 | 96 | 988.9 |
| 20260508020957 | 13 | 262 | 1.6 | 6.4 | 0.03 | 0.91 | 0.36 | 96 | 988.9 |
| 20260508015956 | 13 | 232 | 0.0 | 3.2 | 0.05 | 0.91 | 0.36 | 96 | 988.9 |
| 20260508015456 | 13 | 268 | 0.0 | 1.6 | 0.05 | 0.91 | 0.36 | 95 | 988.9 |
| 20260508014955 | 13 | 268 | 1.6 | 3.2 | 0.05 | 0.91 | 0.36 | 95 | 988.9 |
| 20260508014455 | 13 | 271 | 3.2 | 4.8 | 0.05 | 0.91 | 0.36 | 95 | 988.9 |
| 20260508013955 | 13 | 275 | 4.8 | 6.4 | 0.08 | 0.91 | 0.36 | 95 | 988.9 |
| 20260508013455 | 13 | 287 | 4.8 | 8.0 | 0.08 | 0.91 | 0.36 | 95 | 989.0 |
| 20260508012954 | 13 | 285 | 6.4 | 8.0 | 0.10 | 0.91 | 0.36 | 95 | 988.9 |
| 20260508012454 | 13 | 303 | 6.4 | 9.7 | 0.15 | 0.91 | 0.36 | 95 | 989.0 |
| 20260508011954 | 13 | 287 | 4.8 | 11.3 | 0.13 | 0.89 | 0.33 | 95 | 988.9 |
| 20260508011453 | 13 | 307 | 3.2 | 9.7 | 0.18 | 0.89 | 0.33 | 95 | 989.0 |
| 20260508010953 | 13 | 301 | 3.2 | 4.8 | 0.18 | 0.89 | 0.33 | 95 | 989.0 |
| 20260508010453 | 13 | 302 | 3.2 | 4.8 | 0.18 | 0.89 | 0.33 | 95 | 988.9 |
| 20260508005953 | 13 | 299 | 4.8 | 6.4 | 0.15 | 0.86 | 0.30 | 95 | 988.9 |
| 20260508005452 | 13 | 293 | 4.8 | 8.0 | 0.18 | 0.86 | 0.30 | 95 | 989.0 |
| 20260508004952 | 13 | 278 | 4.8 | 4.8 | 0.18 | 0.86 | 0.30 | 95 | 989.0 |
| 20260508004452 | 13 | 315 | 4.8 | 9.7 | 0.18 | 0.86 | 0.30 | 95 | 989.0 |
| 20260508003951 | 13 | 249 | 1.6 | 8.0 | 0.18 | 0.84 | 0.28 | 95 | 989.0 |
| 20260508003451 | 13 | 263 | 0.0 | 4.8 | 0.18 | 0.84 | 0.28 | 94 | 989.0 |
| 20260508002951 | 13 | 250 | 1.6 | 3.2 | 0.18 | 0.81 | 0.25 | 94 | 989.0 |
| 20260508002451 | 13 | 253 | 3.2 | 4.8 | 0.13 | 0.76 | 0.20 | 94 | 989.1 |
| 20260508001950 | 13 | 232 | 4.8 | 6.4 | 0.15 | 0.76 | 0.20 | 94 | 989.1 |
| 20260508001450 | 13 | 251 | 4.8 | 9.7 | 0.10 | 0.71 | 0.15 | 94 | 989.1 |
| 20260508000950 | 13 | 250 | 6.4 | 9.7 | 0.13 | 0.71 | 0.15 | 94 | 989.1 |
| 20260508000450 | 13 | 241 | 6.4 | 12.9 | 0.13 | 0.71 | 0.15 | 94 | 989.1 |
| 20260507235949 | 13 | 283 | 6.4 | 11.3 | 0.13 | 0.71 | 0.15 | 94 | 989.2 |
| 20260507235449 | 13 | 256 | 6.4 | 9.7 | 0.13 | 0.69 | 0.13 | 94 | 989.2 |
| 20260507234949 | 13 | 262 | 4.8 | 8.0 | 0.13 | 0.69 | 0.13 | 94 | 989.1 |
| 20260507234448 | 13 | 294 | 3.2 | 8.0 | 0.15 | 0.69 | 0.13 | 93 | 989.2 |
| 20260507233949 | 13 | 248 | 1.6 | 8.0 | 0.15 | 0.66 | 0.10 | 93 | 989.2 |
| 20260507233448 | 13 | 247 | 1.6 | 3.2 | 0.15 | 0.66 | 0.10 | 93 | 989.2 |
| 20260507232948 | 13 | 228 | 4.8 | 6.4 | 0.13 | 0.64 | 0.08 | 93 | 989.2 |
| 20260507232447 | 13 | 233 | 4.8 | 11.3 | 0.13 | 0.64 | 0.08 | 92 | 989.2 |
| 20260507231947 | 13 | 210 | 3.2 | 8.0 | 0.10 | 0.61 | 0.05 | 92 | 989.2 |
| 20260507231447 | 13 | 190 | 1.6 | 4.8 | 0.10 | 0.61 | 0.05 | 93 | 989.3 |
| 20260507230946 | 13 | 214 | 0.0 | 4.8 | 0.08 | 0.58 | 0.03 | 93 | 989.3 |
| 20260507230446 | 13 | 168 | 0.0 | 0.0 | 0.08 | 0.58 | 0.03 | 93 | 989.4 |
| 20260507225946 | 13 | 150 | 1.6 | 1.6 | 0.08 | 0.58 | 0.03 | 93 | 989.3 |
| 20260507225445 | 13 | 146 | 1.6 | 1.6 | 0.05 | 0.56 | 0.56 | 93 | 989.4 |
| 20260507224945 | 13 | 132 | 0.0 | 3.2 | 0.05 | 0.56 | 0.56 | 93 | 989.3 |
| 20260507224445 | 13 | 137 | 1.6 | 1.6 | 0.03 | 0.53 | 0.53 | 93 | 989.4 |
| 20260507223945 | 13 | 140 | 1.6 | 4.8 | 0.03 | 0.51 | 0.51 | 93 | 989.2 |
| 20260507223444 | 13 | 103 | 1.6 | 4.8 | 0.03 | 0.51 | 0.51 | 93 | 989.3 |
| 20260507222944 | 13 | 105 | 1.6 | 4.8 | 0.03 | 0.51 | 0.51 | 93 | 989.4 |
| 20260507222444 | 13 | 110 | 1.6 | 4.8 | 0.03 | 0.51 | 0.51 | 93 | 989.3 |
| 20260507221943 | 13 | 91 | 3.2 | 4.8 | 0.03 | 0.51 | 0.51 | 93 | 989.2 |
| 20260507221443 | 13 | 108 | 6.4 | 9.7 | 0.03 | 0.51 | 0.51 | 93 | 989.2 |
| 20260507220443 | 13 | 113 | 4.8 | 11.3 | 0.03 | 0.51 | 0.51 | 93 | 989.3 |
| 20260507215942 | 13 | 113 | 3.2 | 6.4 | 0.05 | 0.51 | 0.51 | 92 | 989.2 |
| 20260507215442 | 13 | 117 | 1.6 | 4.8 | 0.08 | 0.51 | 0.51 | 92 | 989.3 |
| 20260507214942 | 13 | 75 | 1.6 | 4.8 | 0.08 | 0.51 | 0.51 | 91 | 989.2 |
| 20260507214442 | 13 | 113 | 3.2 | 4.8 | 0.10 | 0.51 | 0.51 | 90 | 989.3 |
| 20260507213941 | 13 | 178 | 3.2 | 11.3 | 0.13 | 0.48 | 0.48 | 90 | 989.3 |
| 20260507213441 | 13 | 198 | 1.6 | 11.3 | 0.15 | 0.48 | 0.48 | 92 | 989.4 |
| 20260507212941 | 13 | 166 | 1.6 | 6.4 | 0.15 | 0.48 | 0.48 | 92 | 989.3 |
| 20260507212441 | 13 | 120 | 1.6 | 4.8 | 0.15 | 0.48 | 0.48 | 92 | 989.3 |
| 20260507211940 | 13 | 155 | 1.6 | 4.8 | 0.18 | 0.48 | 0.48 | 92 | 989.4 |
| 20260507211440 | 13 | 159 | 1.6 | 6.4 | 0.18 | 0.48 | 0.48 | 92 | 989.4 |
| 20260507210939 | 13 | 158 | 3.2 | 6.4 | 0.18 | 0.48 | 0.48 | 92 | 989.4 |
| 20260507210439 | 13 | 162 | 4.8 | 8.0 | 0.18 | 0.48 | 0.48 | 92 | 989.3 |
| 20260507205939 | 13 | 100 | 3.2 | 9.7 | 0.15 | 0.46 | 0.46 | 92 | 989.4 |
| 20260507205439 | 13 | 118 | 1.6 | 4.8 | 0.13 | 0.43 | 0.43 | 92 | 989.3 |
| 20260507204938 | 14 | 111 | 1.6 | 4.8 | 0.13 | 0.43 | 0.43 | 91 | 989.3 |
| 20260507204438 | 14 | 119 | 1.6 | 3.2 | 0.10 | 0.41 | 0.41 | 91 | 989.4 |
| 20260507203938 | 14 | 149 | 1.6 | 3.2 | 0.05 | 0.36 | 0.36 | 91 | 989.4 |
| 20260507203438 | 14 | 148 | 1.6 | 4.8 | 0.03 | 0.33 | 0.33 | 90 | 989.3 |
| 20260507202937 | 14 | 133 | 3.2 | 4.8 | 0.03 | 0.33 | 0.33 | 90 | 989.4 |
| 20260507202437 | 14 | 139 | 3.2 | 4.8 | 0.03 | 0.33 | 0.33 | 90 | 989.4 |
| 20260507201937 | 14 | 110 | 3.2 | 4.8 | 0.00 | 0.30 | 0.30 | 90 | 989.4 |
| 20260507201438 | 14 | 127 | 3.2 | 4.8 | 0.00 | 0.30 | 0.30 | 91 | 989.3 |
| 20260507200936 | 14 | 134 | 3.2 | 4.8 | 0.00 | 0.30 | 0.30 | 91 | 989.3 |
| 20260507200436 | 14 | 132 | 1.6 | 4.8 | 0.00 | 0.30 | 0.30 | 91 | 989.4 |
| 20260507195936 | 14 | 128 | 3.2 | 6.4 | 0.00 | 0.30 | 0.30 | 91 | 989.3 |
| 20260507195435 | 14 | 119 | 3.2 | 4.8 | 0.00 | 0.30 | 0.30 | 91 | 989.2 |
| 20260507194935 | 14 | 115 | 3.2 | 4.8 | 0.00 | 0.30 | 0.30 | 91 | 989.3 |
| 20260507194435 | 14 | 123 | 3.2 | 4.8 | 0.00 | 0.30 | 0.30 | 92 | 989.3 |
| 20260507193434 | 13 | 101 | 3.2 | 4.8 | 0.00 | 0.30 | 0.30 | 93 | 989.2 |
| 20260507192434 | 14 | 89 | 3.2 | 4.8 | 0.00 | 0.30 | 0.30 | 92 | 989.1 |
| 20260507191933 | 14 | 89 | 1.6 | 4.8 | 0.00 | 0.30 | 0.30 | 92 | 989.1 |
| 20260507191433 | 14 | 134 | 0.0 | 1.6 | 0.00 | 0.30 | 0.30 | 91 | 989.0 |
| 20260507190933 | 14 | 135 | 0.0 | 0.0 | 0.00 | 0.30 | 0.30 | 90 | 989.0 |
| 20260507190432 | 14 | 135 | 0.0 | 3.2 | 0.00 | 0.30 | 0.30 | 89 | 989.0 |
| 20260507185932 | 15 | 117 | 0.0 | 1.6 | 0.00 | 0.30 | 0.30 | 88 | 988.9 |
| 20260507185432 | 15 | 226 | 0.0 | 0.0 | 0.00 | 0.30 | 0.30 | 88 | 988.9 |
| 20260507184932 | 15 | 226 | 0.0 | 1.6 | 0.00 | 0.30 | 0.30 | 88 | 988.8 |
| 20260507184435 | 15 | 104 | 0.0 | 1.6 | 0.00 | 0.30 | 0.30 | 88 | 988.8 |
| 20260507183431 | 15 | 124 | 0.0 | 1.6 | 0.00 | 0.30 | 0.30 | 91 | 988.9 |
| 20260507182930 | 14 | 153 | 0.0 | 3.2 | 0.00 | 0.30 | 0.30 | 91 | 988.7 |
| 20260507182430 | 14 | 141 | 0.0 | 1.6 | 0.00 | 0.30 | 0.30 | 91 | 988.7 |
| 20260507181930 | 14 | 139 | 0.0 | 1.6 | 0.00 | 0.30 | 0.30 | 91 | 988.7 |
| 20260507181430 | 14 | 144 | 1.6 | 4.8 | 0.00 | 0.30 | 0.30 | 91 | 988.6 |
| 20260507180929 | 14 | 111 | 4.8 | 4.8 | 0.00 | 0.30 | 0.30 | 91 | 988.4 |
| 20260507175929 | 15 | 123 | 6.4 | 8.0 | 0.00 | 0.30 | 0.30 | 90 | 988.3 |
| 20260507175428 | 14 | 122 | 4.8 | 8.0 | 0.00 | 0.30 | 0.30 | 89 | 988.3 |
| 20260507174928 | 14 | 119 | 3.2 | 4.8 | 0.00 | 0.30 | 0.30 | 90 | 988.3 |
| 20260507174428 | 15 | 127 | 3.2 | 6.4 | 0.00 | 0.30 | 0.30 | 90 | 988.3 |
| 20260507173928 | 15 | 140 | 1.6 | 4.8 | 0.00 | 0.30 | 0.30 | 92 | 988.2 |
| 20260507173427 | 15 | 131 | 0.0 | 0.0 | 0.00 | 0.30 | 0.30 | 92 | 988.3 |
| 20260507172927 | 15 | 120 | 0.0 | 0.0 | 0.00 | 0.30 | 0.30 | 92 | 988.3 |
| 20260507172427 | 15 | 131 | 0.0 | 0.0 | 0.00 | 0.30 | 0.30 | 92 | 988.3 |
| 20260507171926 | 15 | 136 | 0.0 | 1.6 | 0.00 | 0.30 | 0.30 | 92 | 988.3 |
| 20260507171426 | 15 | 143 | 0.0 | 1.6 | 0.00 | 0.30 | 0.30 | 92 | 988.3 |
| 20260507170926 | 15 | 148 | 0.0 | 1.6 | 0.00 | 0.30 | 0.30 | 92 | 988.3 |
| 20260507170426 | 15 | 143 | 0.0 | 1.6 | 0.00 | 0.30 | 0.30 | 92 | 988.3 |
| 20260507165925 | 15 | 140 | 1.6 | 3.2 | 0.00 | 0.30 | 0.30 | 92 | 988.3 |
| 20260507165425 | 15 | 129 | 1.6 | 3.2 | 0.00 | 0.30 | 0.30 | 92 | 988.3 |
| 20260507164925 | 15 | 124 | 1.6 | 3.2 | 0.00 | 0.30 | 0.30 | 92 | 988.3 |
| 20260507164424 | 15 | 134 | 1.6 | 3.2 | 0.00 | 0.30 | 0.30 | 92 | 988.4 |
| 20260507163924 | 15 | 141 | 1.6 | 3.2 | 0.00 | 0.30 | 0.30 | 91 | 988.4 |
| 20260507163424 | 15 | 131 | 1.6 | 3.2 | 0.00 | 0.30 | 0.30 | 90 | 988.4 |
| 20260507162924 | 15 | 127 | 1.6 | 1.6 | 0.00 | 0.30 | 0.30 | 89 | 988.5 |
| 20260507162423 | 15 | 122 | 0.0 | 1.6 | 0.03 | 0.30 | 0.30 | 89 | 988.5 |
| 20260507161923 | 15 | 122 | 0.0 | 1.6 | 0.03 | 0.30 | 0.30 | 89 | 988.5 |
| 20260507161423 | 15 | 128 | 0.0 | 0.0 | 0.03 | 0.30 | 0.30 | 88 | 988.5 |
| 20260507160923 | 15 | 123 | 0.0 | 0.0 | 0.05 | 0.30 | 0.30 | 89 | 988.5 |
| 20260507160422 | 15 | 123 | 0.0 | 0.0 | 0.08 | 0.30 | 0.30 | 89 | 988.5 |
| 20260507155925 | 15 | 123 | 0.0 | 0.0 | 0.08 | 0.30 | 0.30 | 90 | 988.5 |
| 20260507155422 | 15 | 123 | 0.0 | 1.6 | 0.08 | 0.30 | 0.30 | 90 | 988.6 |
| 20260507154921 | 15 | 124 | 0.0 | 1.6 | 0.08 | 0.30 | 0.30 | 90 | 988.6 |
| 20260507154421 | 15 | 134 | 0.0 | 0.0 | 0.08 | 0.30 | 0.30 | 90 | 988.6 |
| 20260507153921 | 15 | 165 | 0.0 | 1.6 | 0.08 | 0.30 | 0.30 | 90 | 988.7 |
| 20260507153421 | 16 | 161 | 0.0 | 1.6 | 0.08 | 0.30 | 0.30 | 90 | 988.7 |
| 20260507152920 | 16 | 206 | 0.0 | 3.2 | 0.08 | 0.30 | 0.30 | 90 | 988.7 |
| 20260507152420 | 16 | 213 | 0.0 | 1.6 | 0.08 | 0.28 | 0.28 | 90 | 988.7 |
| 20260507151920 | 16 | 226 | 1.6 | 3.2 | 0.08 | 0.28 | 0.28 | 90 | 988.8 |
| 20260507151419 | 16 | 225 | 1.6 | 3.2 | 0.08 | 0.28 | 0.28 | 90 | 988.8 |
| 20260507150919 | 16 | 234 | 3.2 | 6.4 | 0.08 | 0.25 | 0.25 | 90 | 988.8 |
| 20260507150419 | 16 | 212 | 1.6 | 6.4 | 0.05 | 0.23 | 0.23 | 90 | 988.9 |
| 20260507145919 | 16 | 209 | 1.6 | 4.8 | 0.05 | 0.23 | 0.23 | 90 | 988.8 |
| 20260507145418 | 16 | 221 | 1.6 | 4.8 | 0.05 | 0.23 | 0.23 | 90 | 988.9 |
| 20260507144918 | 16 | 196 | 1.6 | 4.8 | 0.05 | 0.23 | 0.23 | 90 | 988.8 |
| 20260507144418 | 16 | 188 | 1.6 | 4.8 | 0.08 | 0.23 | 0.23 | 89 | 988.8 |
| 20260507143917 | 16 | 203 | 3.2 | 6.4 | 0.08 | 0.23 | 0.23 | 89 | 988.8 |
| 20260507143417 | 16 | 190 | 3.2 | 6.4 | 0.10 | 0.23 | 0.23 | 89 | 988.9 |
| 20260507142917 | 16 | 218 | 1.6 | 6.4 | 0.10 | 0.23 | 0.23 | 88 | 988.9 |
| 20260507142417 | 16 | 212 | 1.6 | 3.2 | 0.08 | 0.20 | 0.20 | 89 | 988.9 |
| 20260507141416 | 16 | 180 | 1.6 | 3.2 | 0.10 | 0.20 | 0.20 | 88 | 989.0 |
| 20260507140916 | 16 | 215 | 1.6 | 4.8 | 0.08 | 0.18 | 0.18 | 88 | 989.1 |
| 20260507140415 | 16 | 222 | 1.6 | 4.8 | 0.08 | 0.18 | 0.18 | 87 | 989.0 |
| 20260507135915 | 16 | 210 | 3.2 | 6.4 | 0.08 | 0.18 | 0.18 | 87 | 989.1 |
| 20260507135415 | 16 | 231 | 3.2 | 6.4 | 0.10 | 0.18 | 0.18 | 86 | 989.2 |
| 20260507134915 | 16 | 262 | 3.2 | 3.2 | 0.13 | 0.18 | 0.18 | 87 | 989.2 |
| 20260507134414 | 16 | 208 | 3.2 | 4.8 | 0.10 | 0.15 | 0.15 | 86 | 989.2 |
| 20260507133914 | 16 | 221 | 3.2 | 9.7 | 0.10 | 0.15 | 0.15 | 85 | 989.2 |
| 20260507133414 | 16 | 215 | 3.2 | 8.0 | 0.08 | 0.13 | 0.13 | 85 | 989.2 |
| 20260507132913 | 16 | 243 | 3.2 | 9.7 | 0.08 | 0.13 | 0.13 | 84 | 989.2 |
| 20260507132413 | 16 | 232 | 3.2 | 4.8 | 0.08 | 0.13 | 0.13 | 84 | 989.2 |
| 20260507131913 | 16 | 226 | 3.2 | 9.7 | 0.05 | 0.10 | 0.10 | 83 | 989.2 |
| 20260507131413 | 16 | 230 | 4.8 | 8.0 | 0.05 | 0.10 | 0.10 | 82 | 989.2 |
| 20260507130912 | 16 | 250 | 6.4 | 9.7 | 0.05 | 0.10 | 0.10 | 81 | 989.1 |
| 20260507130412 | 17 | 238 | 6.4 | 12.9 | 0.05 | 0.10 | 0.10 | 80 | 989.2 |
| 20260507125912 | 17 | 247 | 6.4 | 12.9 | 0.05 | 0.10 | 0.10 | 80 | 989.2 |
| 20260507125411 | 17 | 206 | 6.4 | 11.3 | 0.03 | 0.08 | 0.08 | 78 | 989.1 |
| 20260507124911 | 17 | 232 | 6.4 | 11.3 | 0.00 | 0.05 | 0.05 | 77 | 989.0 |
| 20260507124411 | 17 | 201 | 4.8 | 9.7 | 0.00 | 0.05 | 0.05 | 78 | 989.0 |
| 20260507123911 | 17 | 216 | 4.8 | 11.3 | 0.00 | 0.05 | 0.05 | 78 | 989.0 |
| 20260507123410 | 17 | 228 | 4.8 | 9.7 | 0.05 | 0.05 | 0.05 | 79 | 988.9 |
| 20260507122910 | 17 | 158 | 4.8 | 12.9 | 0.05 | 0.05 | 0.05 | 77 | 988.9 |
| 20260507122410 | 17 | 214 | 3.2 | 8.0 | 0.05 | 0.05 | 0.05 | 77 | 988.9 |
| 20260507121909 | 17 | 217 | 3.2 | 6.4 | 0.05 | 0.05 | 0.05 | 79 | 988.9 |
| 20260507121409 | 17 | 221 | 4.8 | 9.7 | 0.05 | 0.05 | 0.05 | 78 | 988.8 |
| 20260507120909 | 17 | 229 | 4.8 | 12.9 | 0.05 | 0.05 | 0.05 | 79 | 988.8 |
| 20260507120409 | 16 | 203 | 6.4 | 9.7 | 0.05 | 0.05 | 0.05 | 78 | 988.7 |
| 20260507115908 | 16 | 173 | 6.4 | 11.3 | 0.05 | 0.05 | 0.05 | 80 | 988.8 |
| 20260507115408 | 16 | 156 | 4.8 | 11.3 | 0.05 | 0.05 | 0.05 | 79 | 988.9 |
| 20260507114908 | 17 | 179 | 4.8 | 12.9 | 0.05 | 0.05 | 0.05 | 78 | 989.0 |
| 20260507114407 | 17 | 113 | 8.0 | 9.7 | 0.05 | 0.05 | 0.05 | 78 | 988.9 |
| 20260507113907 | 17 | 186 | 11.3 | 14.5 | 0.05 | 0.05 | 0.05 | 75 | 989.0 |
| 20260507113407 | 18 | 217 | 12.9 | 24.1 | 0.00 | 0.00 | 0.00 | 69 | 988.8 |
| 20260507112907 | 19 | 153 | 11.3 | 22.5 | 0.00 | 0.00 | 0.00 | 65 | 988.5 |
| 20260507112406 | 19 | 137 | 11.3 | 19.3 | 0.00 | 0.00 | 0.00 | 64 | 988.5 |
| 20260507111906 | 19 | 207 | 8.0 | 19.3 | 0.00 | 0.00 | 0.00 | 64 | 988.4 |
| 20260507111406 | 19 | 100 | 8.0 | 14.5 | 0.00 | 0.00 | 0.00 | 64 | 988.5 |
| 20260507110906 | 20 | 163 | 6.4 | 14.5 | 0.00 | 0.00 | 0.00 | 64 | 988.5 |
| 20260507110405 | 20 | 195 | 6.4 | 12.9 | 0.00 | 0.00 | 0.00 | 64 | 988.5 |
| 20260507105905 | 20 | 167 | 6.4 | 14.5 | 0.00 | 0.00 | 0.00 | 64 | 988.4 |
| 20260507105405 | 20 | 163 | 4.8 | 11.3 | 0.00 | 0.00 | 0.00 | 64 | 988.4 |
| 20260507104904 | 20 | 116 | 6.4 | 11.3 | 0.00 | 0.00 | 0.00 | 64 | 988.5 |
| 20260507103405 | 20 | 122 | 8.0 | 17.7 | 0.00 | 0.00 | 0.00 | 62 | 988.5 |
| 20260507102903 | 19 | 154 | 6.4 | 12.9 | 0.00 | 0.00 | 0.00 | 63 | 988.6 |
| 20260507102403 | 19 | 154 | 6.4 | 14.5 | 0.00 | 0.00 | 0.00 | 63 | 988.5 |
| 20260507101903 | 19 | 237 | 8.0 | 14.5 | 0.00 | 0.00 | 0.00 | 62 | 988.6 |
| 20260507101404 | 19 | 156 | 8.0 | 16.1 | 0.00 | 0.00 | 0.00 | 62 | 988.6 |
| 20260507100902 | 20 | 172 | 9.7 | 16.1 | 0.00 | 0.00 | 0.00 | 61 | 988.6 |
| 20260507100402 | 20 | 143 | 11.3 | 20.9 | 0.00 | 0.00 | 0.00 | 62 | 988.6 |
| 20260507095902 | 20 | 211 | 9.7 | 17.7 | 0.00 | 0.00 | 0.00 | 60 | 988.6 |
| 20260507095403 | 20 | 237 | 8.0 | 17.7 | 0.00 | 0.00 | 0.00 | 61 | 988.7 |
| 20260507094402 | 20 | 163 | 8.0 | 14.5 | 0.00 | 0.00 | 0.00 | 60 | 988.6 |
| 20260507093900 | 20 | 152 | 9.7 | 24.1 | 0.00 | 0.00 | 0.00 | 59 | 988.6 |
| 20260507093402 | 20 | 221 | 9.7 | 24.1 | 0.00 | 0.00 | 0.00 | 59 | 988.6 |
| 20260507092901 | 20 | 199 | 11.3 | 20.9 | 0.00 | 0.00 | 0.00 | 58 | 988.6 |
| 20260507092400 | 20 | 180 | 11.3 | 20.9 | 0.00 | 0.00 | 0.00 | 58 | 988.5 |
| 20260507091400 | 21 | 144 | 9.7 | 16.1 | 0.00 | 0.00 | 0.00 | 58 | 988.3 |
| 20260507090902 | 21 | 181 | 9.7 | 17.7 | 0.00 | 0.00 | 0.00 | 59 | 988.3 |
| 20260507085900 | 20 | 107 | 9.7 | 19.3 | 0.00 | 0.00 | 0.00 | 58 | 988.2 |
| 20260507085358 | 20 | 131 | 9.7 | 19.3 | 0.00 | 0.00 | 0.00 | 57 | 988.1 |
| 20260507084858 | 20 | 146 | 12.9 | 22.5 | 0.00 | 0.00 | 0.00 | 58 | 988.2 |
| 20260507084357 | 20 | 117 | 14.5 | 22.5 | 0.00 | 0.00 | 0.00 | 58 | 988.1 |
| 20260507083900 | 20 | 141 | 12.9 | 25.7 | 0.00 | 0.00 | 0.00 | 57 | 988.1 |
| 20260507082858 | 20 | 147 | 6.4 | 20.9 | 0.00 | 0.00 | 0.00 | 58 | 987.8 |
| 20260507082356 | 20 | 141 | 6.4 | 20.9 | 0.00 | 0.00 | 0.00 | 61 | 987.8 |
| 20260507081857 | 19 | 122 | 3.2 | 11.3 | 0.00 | 0.00 | 0.00 | 63 | 987.8 |
| 20260507081359 | 19 | 211 | 0.0 | 1.6 | 0.00 | 0.00 | 0.00 | 66 | 987.8 |
| 20260507080357 | 18 | 53 | 0.0 | 1.6 | 0.00 | 0.00 | 0.00 | 69 | 987.8 |
| 20260507074856 | 17 | 73 | 3.2 | 4.8 | 0.00 | 0.00 | 0.00 | 68 | 987.7 |
| 20260507074354 | 17 | 106 | 3.2 | 3.2 | 0.00 | 0.00 | 0.00 | 68 | 987.7 |
| 20260507073855 | 17 | 92 | 4.8 | 8.0 | 0.00 | 0.00 | 0.00 | 68 | 987.6 |
| 20260507073355 | 17 | 86 | 6.4 | 9.7 | 0.00 | 0.00 | 0.00 | 68 | 987.7 |
| 20260507072853 | 17 | 84 | 8.0 | 11.3 | 0.00 | 0.00 | 0.00 | 68 | 987.7 |
| 20260507072353 | 17 | 103 | 8.0 | 12.9 | 0.00 | 0.00 | 0.00 | 67 | 987.7 |
| 20260507071852 | 17 | 86 | 8.0 | 11.3 | 0.00 | 0.00 | 0.00 | 66 | 987.7 |
| 20260507071352 | 17 | 101 | 9.7 | 11.3 | 0.00 | 0.00 | 0.00 | 67 | 987.6 |
| 20260507070852 | 17 | 98 | 9.7 | 12.9 | 0.00 | 0.00 | 0.00 | 66 | 987.6 |
| 20260507070352 | 18 | 106 | 9.7 | 12.9 | 0.00 | 0.00 | 0.00 | 67 | 987.5 |
| 20260507065851 | 18 | 75 | 9.7 | 14.5 | 0.00 | 0.00 | 0.00 | 66 | 987.4 |
| 20260507065352 | 17 | 83 | 9.7 | 12.9 | 0.00 | 0.00 | 0.00 | 66 | 987.4 |
| 20260507064851 | 17 | 95 | 9.7 | 14.5 | 0.00 | 0.00 | 0.00 | 67 | 987.4 |
| 20260507064350 | 17 | 89 | 9.7 | 14.5 | 0.00 | 0.00 | 0.00 | 68 | 987.4 |
| 20260507063850 | 17 | 105 | 11.3 | 14.5 | 0.00 | 0.00 | 0.00 | 67 | 987.4 |
| 20260507063350 | 17 | 110 | 11.3 | 17.7 | 0.00 | 0.00 | 0.00 | 67 | 987.3 |
| 20260507062850 | 17 | 96 | 9.7 | 16.1 | 0.00 | 0.00 | 0.00 | 66 | 987.2 |
| 20260507062349 | 17 | 119 | 9.7 | 16.1 | 0.00 | 0.00 | 0.00 | 68 | 987.3 |
| 20260507061849 | 17 | 105 | 11.3 | 14.5 | 0.00 | 0.00 | 0.00 | 68 | 987.2 |
| 20260507061349 | 16 | 93 | 14.5 | 20.9 | 0.00 | 0.00 | 0.00 | 68 | 987.2 |
| 20260507060848 | 16 | 118 | 11.3 | 24.1 | 0.00 | 0.00 | 0.00 | 70 | 987.3 |
| 20260507060348 | 16 | 127 | 9.7 | 17.7 | 0.00 | 0.00 | 0.00 | 70 | 987.4 |
| 20260507055848 | 16 | 103 | 12.9 | 20.9 | 0.00 | 0.00 | 0.00 | 71 | 987.3 |
| 20260507055348 | 16 | 115 | 12.9 | 20.9 | 0.00 | 0.00 | 0.00 | 70 | 987.1 |
| 20260507054847 | 15 | 107 | 11.3 | 20.9 | 0.00 | 0.00 | 0.00 | 71 | 987.1 |
| 20260507054347 | 16 | 93 | 9.7 | 17.7 | 0.00 | 0.00 | 0.00 | 71 | 986.9 |
| 20260507053847 | 16 | 129 | 11.3 | 17.7 | 0.00 | 0.00 | 0.00 | 71 | 987.0 |
| 20260507053347 | 15 | 94 | 12.9 | 20.9 | 0.00 | 0.00 | 0.00 | 72 | 987.0 |
| 20260507052846 | 15 | 108 | 11.3 | 20.9 | 0.00 | 0.00 | 0.00 | 73 | 987.0 |
| 20260507052346 | 15 | 109 | 11.3 | 19.3 | 0.00 | 0.00 | 0.00 | 73 | 986.9 |
| 20260507051846 | 14 | 94 | 14.5 | 14.5 | 0.00 | 0.00 | 0.00 | 75 | 986.9 |
| 20260507051345 | 14 | 92 | 16.1 | 22.5 | 0.00 | 0.00 | 0.00 | 75 | 986.8 |
| 20260507050845 | 15 | 113 | 14.5 | 20.9 | 0.00 | 0.00 | 0.00 | 73 | 986.9 |
| 20260507050345 | 15 | 92 | 12.9 | 20.9 | 0.00 | 0.00 | 0.00 | 72 | 986.8 |
| 20260507045845 | 15 | 110 | 11.3 | 17.7 | 0.00 | 0.00 | 0.00 | 72 | 986.9 |
| 20260507045344 | 15 | 108 | 11.3 | 14.5 | 0.00 | 0.00 | 0.00 | 74 | 986.9 |
| 20260507044844 | 15 | 86 | 9.7 | 14.5 | 0.00 | 0.00 | 0.00 | 73 | 987.0 |
| 20260507044344 | 15 | 102 | 6.4 | 11.3 | 0.00 | 0.00 | 0.00 | 74 | 987.1 |
| 20260507043843 | 14 | 91 | 4.8 | 9.7 | 0.00 | 0.00 | 0.00 | 74 | 987.1 |
| 20260507043343 | 14 | 99 | 4.8 | 9.7 | 0.00 | 0.00 | 0.00 | 74 | 987.3 |
| 20260507042843 | 14 | 97 | 4.8 | 8.0 | 0.00 | 0.00 | 0.00 | 74 | 987.3 |
| 20260507042343 | 14 | 146 | 8.0 | 11.3 | 0.00 | 0.00 | 0.00 | 74 | 987.2 |
| 20260507041842 | 13 | 113 | 9.7 | 14.5 | 0.00 | 0.00 | 0.00 | 74 | 987.0 |
| 20260507041342 | 13 | 97 | 12.9 | 16.1 | 0.00 | 0.00 | 0.00 | 75 | 987.0 |
| 20260507040842 | 13 | 91 | 12.9 | 19.3 | 0.00 | 0.00 | 0.00 | 76 | 986.8 |
| 20260507040341 | 13 | 98 | 8.0 | 17.7 | 0.00 | 0.00 | 0.00 | 75 | 986.7 |
| 20260507035841 | 13 | 92 | 3.2 | 19.3 | 0.00 | 0.00 | 0.00 | 74 | 986.8 |
| 20260507035341 | 13 | 101 | 1.6 | 4.8 | 0.00 | 0.00 | 0.00 | 74 | 986.8 |
| 20260507034841 | 13 | 104 | 4.8 | 9.7 | 0.00 | 0.00 | 0.00 | 74 | 986.8 |
| 20260507034340 | 13 | 110 | 6.4 | 14.5 | 0.00 | 0.00 | 0.00 | 74 | 986.9 |
| 20260507033840 | 13 | 122 | 6.4 | 9.7 | 0.00 | 0.00 | 0.00 | 74 | 986.8 |
| 20260507033340 | 13 | 80 | 4.8 | 9.7 | 0.00 | 0.00 | 0.00 | 74 | 986.6 |
| 20260507032839 | 13 | 151 | 6.4 | 8.0 | 0.00 | 0.00 | 0.00 | 74 | 986.8 |
| 20260507032339 | 13 | 122 | 8.0 | 11.3 | 0.00 | 0.00 | 0.00 | 74 | 986.6 |
| 20260507031839 | 13 | 85 | 11.3 | 14.5 | 0.00 | 0.00 | 0.00 | 74 | 986.5 |
| 20260507031339 | 13 | 77 | 12.9 | 19.3 | 0.00 | 0.00 | 0.00 | 74 | 986.4 |
| 20260507030838 | 14 | 84 | 14.5 | 25.7 | 0.00 | 0.00 | 0.00 | 73 | 986.4 |
| 20260507030338 | 13 | 80 | 12.9 | 17.7 | 0.00 | 0.00 | 0.00 | 73 | 986.4 |
| 20260507025838 | 13 | 85 | 12.9 | 17.7 | 0.00 | 0.00 | 0.00 | 73 | 986.4 |
| 20260507025337 | 13 | 86 | 14.5 | 17.7 | 0.00 | 0.00 | 0.00 | 73 | 986.3 |
| 20260507024837 | 13 | 80 | 14.5 | 19.3 | 0.00 | 0.00 | 0.00 | 73 | 986.3 |
| 20260507024337 | 14 | 96 | 14.5 | 19.3 | 0.00 | 0.00 | 0.00 | 73 | 986.3 |